Time,TemperatureF,DewpointF,PressureIn,WindDirection,WindDirectionDegrees,WindSpeedMPH,WindSpeedGustMPH,Humidity,HourlyPrecipIn,Conditions,Clouds,dailyrainin,SoftwareType,DateUTC
2013-03-04 00:01:00,23.0,20.0,29.79,NW,311,12.0,19.0,87,0.00,,,0.00,weatherlink.com 1.10,2013-03-04 05:01:00,
2013-03-04 00:16:00,22.9,20.0,29.79,NW,305,9.0,21.0,87,0.00,,,0.00,weatherlink.com 1.10,2013-03-04 05:16:00,
2013-03-04 00:31:00,22.8,20.0,29.79,NW,319,6.0,16.0,88,0.00,,,0.00,weatherlink.com 1.10,2013-03-04 05:31:00,
2013-03-04 00:46:00,22.8,20.0,29.79,NNW,348,10.0,20.0,88,0.00,,,0.00,weatherlink.com 1.10,2013-03-04 05:46:00,
2013-03-04 01:01:00,22.7,20.0,29.79,NNW,333,12.0,22.0,88,0.00,,,0.00,weatherlink.com 1.10,2013-03-04 06:01:00,
2013-03-04 01:16:00,22.5,19.0,29.80,NW,311,16.0,18.0,87,0.00,,,0.00,weatherlink.com 1.10,2013-03-04 06:16:00,
2013-03-04 01:31:00,22.2,19.0,29.80,NNE,23,9.0,20.0,87,0.00,,,0.00,weatherlink.com 1.10,2013-03-04 06:31:00,
2013-03-04 01:46:00,22.2,19.0,29.80,NNW,329,11.0,18.0,87,0.00,,,0.00,weatherlink.com 1.10,2013-03-04 06:46:00,
2013-03-04 02:01:00,22.2,19.0,29.80,NW,314,8.0,13.0,88,0.00,,,0.00,weatherlink.com 1.10,2013-03-04 07:01:00,
2013-03-04 02:16:00,22.2,19.0,29.81,NW,310,8.0,15.0,87,0.00,,,0.00,weatherlink.com 1.10,2013-03-04 07:16:00,
2013-03-04 02:31:00,22.3,19.0,29.80,WNW,300,10.0,19.0,87,0.00,,,0.00,weatherlink.com 1.10,2013-03-04 07:31:00,
2013-03-04 02:46:00,22.3,19.0,29.80,NNW,344,9.0,22.0,87,0.00,,,0.00,weatherlink.com 1.10,2013-03-04 07:46:00,
2013-03-04 03:01:00,22.2,19.0,29.80,North,349,11.0,18.0,87,0.00,,,0.00,weatherlink.com 1.10,2013-03-04 08:01:00,
2013-03-04 03:16:00,22.3,19.0,29.80,WNW,291,11.0,20.0,87,0.00,,,0.00,weatherlink.com 1.10,2013-03-04 08:16:00,
2013-03-04 03:31:00,22.2,19.0,29.81,NNW,346,8.0,18.0,86,0.00,,,0.00,weatherlink.com 1.10,2013-03-04 08:31:00,
2013-03-04 03:46:00,22.2,19.0,29.81,WNW,297,13.0,16.0,87,0.00,,,0.00,weatherlink.com 1.10,2013-03-04 08:46:00,
2013-03-04 04:01:00,22.2,19.0,29.81,NW,319,12.0,20.0,87,0.00,,,0.00,weatherlink.com 1.10,2013-03-04 09:01:00,
2013-03-04 04:16:00,22.1,19.0,29.82,WNW,302,12.0,16.0,87,0.00,,,0.00,weatherlink.com 1.10,2013-03-04 09:16:00,
2013-03-04 04:31:00,22.0,19.0,29.82,NW,304,10.0,19.0,88,0.00,,,0.00,weatherlink.com 1.10,2013-03-04 09:31:00,
2013-03-04 04:46:00,21.8,19.0,29.82,NNW,327,9.0,19.0,88,0.00,,,0.00,weatherlink.com 1.10,2013-03-04 09:46:00,
2013-03-04 05:01:00,21.8,19.0,29.83,NNW,338,12.0,18.0,88,0.00,,,0.00,weatherlink.com 1.10,2013-03-04 10:01:00,
2013-03-04 05:16:00,21.7,19.0,29.83,NNW,332,13.0,18.0,88,0.00,,,0.00,weatherlink.com 1.10,2013-03-04 10:16:00,
2013-03-04 05:31:00,21.6,19.0,29.84,NW,321,9.0,15.0,89,0.00,,,0.00,weatherlink.com 1.10,2013-03-04 10:31:00,
2013-03-04 05:46:00,21.6,19.0,29.84,North,351,12.0,16.0,89,0.00,,,0.00,weatherlink.com 1.10,2013-03-04 10:46:00,
2013-03-04 06:01:00,21.7,18.0,29.84,NNW,336,13.0,18.0,87,0.00,,,0.00,weatherlink.com 1.10,2013-03-04 11:01:00,
2013-03-04 06:16:00,21.7,18.0,29.85,WNW,284,15.0,22.0,86,0.00,,,0.00,weatherlink.com 1.10,2013-03-04 11:16:00,
2013-03-04 06:31:00,21.6,18.0,29.85,NNW,335,12.0,16.0,87,0.00,,,0.00,weatherlink.com 1.10,2013-03-04 11:31:00,
2013-03-04 06:46:00,21.7,18.0,29.85,NW,323,8.0,15.0,87,0.00,,,0.00,weatherlink.com 1.10,2013-03-04 11:46:00,
2013-03-04 07:01:00,21.7,18.0,29.85,WNW,301,13.0,20.0,86,0.00,,,0.00,weatherlink.com 1.10,2013-03-04 12:01:00,
2013-03-04 07:16:00,21.6,18.0,29.85,NNW,333,14.0,21.0,87,0.00,,,0.00,weatherlink.com 1.10,2013-03-04 12:16:00,
2013-03-04 07:31:00,21.7,19.0,29.86,NW,325,14.0,23.0,88,0.00,,,0.00,weatherlink.com 1.10,2013-03-04 12:31:00,
2013-03-04 07:46:00,21.6,18.0,29.86,NW,307,11.0,19.0,87,0.00,,,0.00,weatherlink.com 1.10,2013-03-04 12:46:00,
2013-03-04 08:01:00,21.7,18.0,29.86,NW,313,15.0,16.0,87,0.00,,,0.00,weatherlink.com 1.10,2013-03-04 13:01:00,
2013-03-04 08:17:00,21.6,18.0,29.86,NW,315,12.0,18.0,86,0.00,,,0.00,weatherlink.com 1.10,2013-03-04 13:17:00,
2013-03-04 08:32:00,21.7,18.0,29.86,NW,308,18.0,21.0,84,0.00,,,0.00,weatherlink.com 1.10,2013-03-04 13:32:00,
2013-03-04 08:47:00,21.5,17.0,29.86,NW,309,13.0,23.0,83,0.00,,,0.00,weatherlink.com 1.10,2013-03-04 13:47:00,
2013-03-04 09:02:00,21.8,18.0,29.86,WNW,302,15.0,22.0,84,0.00,,,0.00,weatherlink.com 1.10,2013-03-04 14:02:00,
2013-03-04 09:17:00,22.1,18.0,29.86,NNW,327,9.0,15.0,84,0.00,,,0.00,weatherlink.com 1.10,2013-03-04 14:17:00,
2013-03-04 09:32:00,22.4,18.0,29.86,NW,315,15.0,23.0,84,0.00,,,0.00,weatherlink.com 1.10,2013-03-04 14:32:00,
2013-03-04 09:47:00,22.7,19.0,29.86,WNW,292,13.0,18.0,84,0.00,,,0.00,weatherlink.com 1.10,2013-03-04 14:47:00,
2013-03-04 10:02:00,22.8,18.0,29.86,NW,325,12.0,22.0,83,0.00,,,0.00,weatherlink.com 1.10,2013-03-04 15:02:00,
2013-03-04 10:17:00,23.1,19.0,29.86,NW,321,13.0,19.0,83,0.00,,,0.00,weatherlink.com 1.10,2013-03-04 15:17:00,
2013-03-04 10:32:00,23.2,19.0,29.86,NW,314,12.0,20.0,82,0.00,,,0.00,weatherlink.com 1.10,2013-03-04 15:32:00,
2013-03-04 10:47:00,23.5,19.0,29.86,NNW,329,9.0,21.0,83,0.00,,,0.00,weatherlink.com 1.10,2013-03-04 15:47:00,
2013-03-04 11:02:00,23.6,19.0,29.86,NW,306,13.0,21.0,82,0.00,,,0.00,weatherlink.com 1.10,2013-03-04 16:02:00,
2013-03-04 11:17:00,23.9,19.0,29.86,NW,320,12.0,20.0,82,0.00,,,0.00,weatherlink.com 1.10,2013-03-04 16:17:00,
2013-03-04 11:32:00,24.0,19.0,29.86,NW,323,12.0,20.0,81,0.00,,,0.00,weatherlink.com 1.10,2013-03-04 16:32:00,
2013-03-04 11:47:00,24.3,19.0,29.87,NNW,342,10.0,18.0,81,0.00,,,0.00,weatherlink.com 1.10,2013-03-04 16:47:00,
2013-03-04 12:02:00,24.1,19.0,29.86,NW,314,14.0,19.0,79,0.00,,,0.00,weatherlink.com 1.10,2013-03-04 17:02:00,
2013-03-04 12:17:00,24.4,19.0,29.87,North,350,11.0,25.0,79,0.00,,,0.00,weatherlink.com 1.10,2013-03-04 17:17:00,
2013-03-04 12:32:00,24.8,19.0,29.86,WNW,302,8.0,19.0,79,0.00,,,0.00,weatherlink.com 1.10,2013-03-04 17:32:00,
2013-03-04 12:47:00,24.7,19.0,29.86,NNW,327,10.0,18.0,79,0.00,,,0.00,weatherlink.com 1.10,2013-03-04 17:47:00,
2013-03-04 13:02:00,25.3,19.0,29.85,NNW,340,11.0,18.0,78,0.00,,,0.00,weatherlink.com 1.10,2013-03-04 18:02:00,
2013-03-04 13:17:00,25.7,20.0,29.85,WNW,302,13.0,20.0,78,0.00,,,0.00,weatherlink.com 1.10,2013-03-04 18:17:00,
2013-03-04 13:32:00,25.8,20.0,29.85,NNW,330,10.0,19.0,78,0.00,,,0.00,weatherlink.com 1.10,2013-03-04 18:32:00,
2013-03-04 13:47:00,26.0,20.0,29.85,NW,304,11.0,20.0,77,0.00,,,0.00,weatherlink.com 1.10,2013-03-04 18:47:00,
2013-03-04 14:02:00,26.3,20.0,29.85,NNW,347,9.0,20.0,77,0.00,,,0.00,weatherlink.com 1.10,2013-03-04 19:02:00,
2013-03-04 14:17:00,26.4,20.0,29.85,NW,320,11.0,20.0,77,0.00,,,0.00,weatherlink.com 1.10,2013-03-04 19:17:00,
2013-03-04 14:32:00,26.3,20.0,29.85,NW,316,10.0,20.0,76,0.00,,,0.00,weatherlink.com 1.10,2013-03-04 19:32:00,
2013-03-04 14:47:00,26.7,20.0,29.86,WNW,296,13.0,18.0,76,0.00,,,0.00,weatherlink.com 1.10,2013-03-04 19:47:00,
2013-03-04 15:02:00,26.6,20.0,29.85,NW,305,11.0,19.0,76,0.00,,,0.00,weatherlink.com 1.10,2013-03-04 20:02:00,
2013-03-04 15:17:00,26.9,20.0,29.86,WNW,302,15.0,22.0,75,0.00,,,0.00,weatherlink.com 1.10,2013-03-04 20:17:00,
2013-03-04 15:32:00,27.0,20.0,29.86,NNW,333,14.0,18.0,75,0.00,,,0.00,weatherlink.com 1.10,2013-03-04 20:32:00,
2013-03-04 15:47:00,27.3,20.0,29.86,NNW,330,14.0,21.0,75,0.00,,,0.00,weatherlink.com 1.10,2013-03-04 20:47:00,
2013-03-04 16:02:00,27.5,21.0,29.86,North,355,11.0,18.0,76,0.00,,,0.00,weatherlink.com 1.10,2013-03-04 21:02:00,
2013-03-04 16:17:00,27.3,21.0,29.86,NW,319,10.0,23.0,76,0.00,,,0.00,weatherlink.com 1.10,2013-03-04 21:17:00,
2013-03-04 16:32:00,27.4,21.0,29.87,NW,304,12.0,20.0,77,0.00,,,0.00,weatherlink.com 1.10,2013-03-04 21:32:00,
2013-03-04 16:47:00,27.5,21.0,29.87,NW,304,11.0,20.0,77,0.00,,,0.00,weatherlink.com 1.10,2013-03-04 21:47:00,
2013-03-04 17:02:00,27.5,21.0,29.87,NW,311,12.0,19.0,75,0.00,,,0.00,weatherlink.com 1.10,2013-03-04 22:02:00,
2013-03-04 17:17:00,27.6,21.0,29.87,NNW,333,9.0,15.0,77,0.00,,,0.00,weatherlink.com 1.10,2013-03-04 22:17:00,
2013-03-04 17:32:00,27.5,22.0,29.88,NNW,331,10.0,16.0,78,0.00,,,0.00,weatherlink.com 1.10,2013-03-04 22:32:00,
2013-03-04 17:47:00,27.5,22.0,29.88,NW,307,8.0,16.0,78,0.00,,,0.00,weatherlink.com 1.10,2013-03-04 22:47:00,
2013-03-04 18:02:00,27.6,22.0,29.89,WNW,296,12.0,18.0,78,0.00,,,0.00,weatherlink.com 1.10,2013-03-04 23:02:00,
2013-03-04 18:17:00,27.8,22.0,29.89,WNW,298,13.0,15.0,78,0.00,,,0.00,weatherlink.com 1.10,2013-03-04 23:17:00,
2013-03-04 18:32:00,27.6,22.0,29.90,North,355,10.0,21.0,78,0.00,,,0.00,weatherlink.com 1.10,2013-03-04 23:32:00,
2013-03-04 18:47:00,27.5,22.0,29.90,NNW,331,8.0,19.0,79,0.00,,,0.00,weatherlink.com 1.10,2013-03-04 23:47:00,
2013-03-04 19:02:00,27.6,22.0,29.90,NW,321,10.0,20.0,80,0.00,,,0.00,weatherlink.com 1.10,2013-03-05 00:02:00,
2013-03-04 19:17:00,27.6,22.0,29.90,NW,306,7.0,19.0,80,0.00,,,0.00,weatherlink.com 1.10,2013-03-05 00:17:00,
2013-03-04 19:32:00,27.6,23.0,29.90,WNW,295,12.0,14.0,81,0.00,,,0.00,weatherlink.com 1.10,2013-03-05 00:32:00,
2013-03-04 19:47:00,27.7,23.0,29.91,NW,309,9.0,18.0,81,0.00,,,0.00,weatherlink.com 1.10,2013-03-05 00:47:00,
2013-03-04 20:02:00,27.7,23.0,29.91,WNW,296,10.0,13.0,82,0.00,,,0.00,weatherlink.com 1.10,2013-03-05 01:02:00,
2013-03-04 20:17:00,27.8,23.0,29.91,NNW,346,8.0,15.0,82,0.00,,,0.00,weatherlink.com 1.10,2013-03-05 01:17:00,
2013-03-04 20:32:00,27.9,23.0,29.91,NNW,340,12.0,15.0,82,0.00,,,0.00,weatherlink.com 1.10,2013-03-05 01:32:00,
2013-03-04 20:47:00,28.0,23.0,29.92,NW,318,14.0,18.0,82,0.00,,,0.00,weatherlink.com 1.10,2013-03-05 01:47:00,
2013-03-04 21:02:00,27.9,23.0,29.92,North,5,10.0,15.0,82,0.00,,,0.00,weatherlink.com 1.10,2013-03-05 02:02:00,
2013-03-04 21:17:00,27.9,23.0,29.92,NW,318,7.0,18.0,82,0.00,,,0.00,weatherlink.com 1.10,2013-03-05 02:17:00,
2013-03-04 21:32:00,27.8,23.0,29.92,WNW,300,11.0,19.0,81,0.00,,,0.00,weatherlink.com 1.10,2013-03-05 02:32:00,
2013-03-04 21:47:00,27.8,23.0,29.92,WNW,302,11.0,19.0,81,0.00,,,0.00,weatherlink.com 1.10,2013-03-05 02:47:00,
2013-03-04 22:02:00,27.7,23.0,29.92,NNW,348,12.0,20.0,82,0.00,,,0.00,weatherlink.com 1.10,2013-03-05 03:02:00,
2013-03-04 22:17:00,27.6,23.0,29.93,NNW,329,10.0,15.0,82,0.00,,,0.00,weatherlink.com 1.10,2013-03-05 03:17:00,
2013-03-04 22:33:00,27.6,23.0,29.93,NNW,342,7.0,16.0,83,0.00,,,0.00,weatherlink.com 1.10,2013-03-05 03:33:00,
2013-03-04 22:48:00,27.5,23.0,29.93,NW,321,7.0,14.0,83,0.00,,,0.00,weatherlink.com 1.10,2013-03-05 03:48:00,
2013-03-04 23:03:00,27.2,23.0,29.93,North,5,11.0,15.0,84,0.00,,,0.00,weatherlink.com 1.10,2013-03-05 04:03:00,
2013-03-04 23:18:00,26.9,22.0,29.93,North,360,12.0,18.0,83,0.00,,,0.00,weatherlink.com 1.10,2013-03-05 04:18:00,
2013-03-04 23:33:00,26.4,22.0,29.93,North,355,10.0,23.0,83,0.00,,,0.00,weatherlink.com 1.10,2013-03-05 04:33:00,
2013-03-04 23:48:00,26.3,22.0,29.93,NW,304,9.0,20.0,82,0.00,,,0.00,weatherlink.com 1.10,2013-03-05 04:48:00,